DW9231 Weather Reports


time (UTC)temp
C
wind
direction
speed
KPH
gust
KPH
rain 1hr
cm
rain 24hr
cm
rain mn
cm
humidity
%
barometer
mb
20260506113032 5 37 1.6 9.7 0.00 0.15 0.00 68 1013.0
20260506111537 5 18 3.2 8.0 0.00 0.15 0.00 67 1012.9
20260506110032 5 80 0.0 6.4 0.00 0.15 0.00 67 1012.9
20260506104528 5 80 1.6 6.4 0.00 0.15 0.00 67 1012.6
20260506103026 6 91 3.2 4.8 0.00 0.15 0.00 67 1012.6
20260506101526 6 84 1.6 4.8 0.00 0.15 0.00 68 1012.4
20260506100021 6 93 0.0 8.0 0.00 0.15 0.00 68 1012.4
20260506094519 6 91 3.2 8.0 0.00 0.15 0.00 68 1012.2
20260506093018 6 111 3.2 8.0 0.00 0.15 0.00 68 1012.2
20260506091518 6 136 0.0 8.0 0.00 0.15 0.00 68 1012.2
20260506090015 7 131 1.6 8.0 0.00 0.15 0.00 68 1012.2
20260506084512 7 115 1.6 6.4 0.00 0.15 0.00 64 1012.1
20260506083010 7 127 0.0 1.6 0.00 0.15 0.00 64 1012.3
20260506081509 7 351 0.0 3.2 0.00 0.15 0.00 63 1012.3
20260506073003 8 351 0.0 0.0 0.00 0.15 0.00 63 1012.6
20260506071502 8 351 0.0 0.0 0.00 0.15 0.00 62 1012.5
20260506061558 9 285 0.0 4.8 0.00 0.15 0.00 61 1012.3
20260506044552 9 300 1.6 8.0 0.00 0.15 0.15 62 1012.3
20260506043049 9 293 8.0 14.5 0.00 0.15 0.15 62 1012.4
20260506041549 9 326 8.0 17.7 0.00 0.15 0.15 61 1011.9
20260506040058 9 296 4.8 16.1 0.00 0.15 0.15 64 1011.8
20260506034558 9 308 3.2 9.7 0.00 0.15 0.15 64 1011.6
20260506033045 9 281 6.4 24.1 0.00 0.15 0.15 65 1011.3
20260506031555 9 271 9.7 19.3 0.00 0.15 0.15 66 1011.1
20260506030041 9 307 8.0 24.1 0.00 0.15 0.15 66 1011.0
20260506024538 10 338 11.3 20.9 0.00 0.15 0.15 65 1010.7
20260506023037 10 304 11.3 20.9 0.00 0.15 0.15 61 1010.1
20260506021534 12 155 0.0 0.0 0.00 0.15 0.15 61 1009.7
20260506020033 12 155 0.0 3.2 0.00 0.15 0.15 58 1009.2
20260506014534 12 167 0.0 3.2 0.03 0.15 0.15 58 1008.9
20260506013033 12 205 0.0 3.2 0.03 0.15 0.15 59 1008.8
20260506011537 12 236 0.0 3.2 0.03 0.15 0.15 59 1008.6
20260506010036 12 221 1.6 9.7 0.03 0.15 0.15 64 1008.7
20260506004531 13 290 0.0 6.4 0.00 0.13 0.13 55 1008.7
20260506003037 13 219 0.0 4.8 0.00 0.13 0.13 54 1008.7
20260506001531 13 101 0.0 9.7 0.00 0.13 0.13 51 1008.3
20260506000032 14 120 1.6 6.4 0.00 0.13 0.13 51 1008.5
20260505234529 13 95 0.0 3.2 0.00 0.13 0.13 50 1008.3
20260505233030 13 47 0.0 4.8 0.00 0.13 0.13 54 1008.5
20260505231537 13 153 0.0 9.7 0.00 0.13 0.13 54 1009.1
20260505230031 13 201 0.0 9.7 0.08 0.13 0.13 56 1008.8
20260505224526 12 338 3.2 9.7 0.08 0.13 0.13 62 1008.9
20260505223024 12 49 1.6 11.3 0.08 0.13 0.13 77 1009.1
20260505221522 10 100 3.2 8.0 0.08 0.13 0.13 78 1009.7
20260505220020 11 150 1.6 16.1 0.03 0.08 0.08 75 1010.0
20260505214522 13 177 3.2 14.5 0.00 0.05 0.05 60 1009.7
20260505213019 14 235 3.2 11.3 0.00 0.05 0.05 52 1009.4
20260505211518 15 164 3.2 11.3 0.00 0.05 0.05 52 1009.8
20260505210024 15 201 3.2 9.7 0.00 0.05 0.05 52 1009.7
20260505204514 14 258 3.2 9.7 0.00 0.05 0.05 57 1009.8
20260505203013 13 39 1.6 9.7 0.00 0.05 0.05 58 1010.1
20260505201512 13 353 1.6 8.0 0.00 0.05 0.05 61 1010.1
20260505200019 12 274 0.0 6.4 0.03 0.05 0.05 66 1010.3
20260505194513 11 117 0.0 8.0 0.05 0.05 0.05 71 1010.5
20260505193010 11 254 0.0 1.6 0.05 0.05 0.05 74 1010.6
20260505191508 11 211 1.6 6.4 0.05 0.05 0.05 73 1010.8
20260505190007 10 183 0.0 6.4 0.03 0.03 0.03 81 1010.8
20260505184504 11 221 3.2 9.7 0.03 0.03 0.03 75 1010.9
20260505183001 12 165 6.4 12.9 0.00 0.00 0.00 57 1010.6
20260505181601 13 144 6.4 14.5 0.00 0.00 0.00 52 1010.4
20260505180059 15 154 3.2 16.1 0.00 0.00 0.00 47 1010.4
20260505174606 15 196 6.4 14.5 0.00 0.00 0.00 46 1010.3
20260505173058 13 39 0.0 6.4 0.00 0.00 0.00 48 1010.4
20260505171604 12 218 0.0 6.4 0.00 0.00 0.00 51 1010.5
20260505170056 12 220 1.6 6.4 0.00 0.00 0.00 53 1010.8
20260505164616 11 234 0.0 6.4 0.00 0.00 0.00 55 1010.4
20260505163102 11 274 1.6 8.0 0.00 0.00 0.00 57 1010.6
20260505161610 11 239 1.6 11.3 0.00 0.00 0.00 58 1011.0
20260505153048 10 261 8.0 16.1 0.00 0.00 0.00 60 1011.3
20260505151547 10 301 3.2 12.9 0.00 0.00 0.00 64 1011.4
20260505124526 11 346 0.0 3.2 0.00 0.00 0.00 45 1010.6
20260505123023 12 6 0.0 0.0 0.00 0.00 0.00 44 1010.9
20260505121524 12 6 0.0 3.2 0.00 0.00 0.00 43 1011.0
20260505120023 12 359 0.0 0.0 0.00 0.00 0.00 43 1010.8
20260505114522 12 139 0.0 0.0 0.00 0.00 0.00 42 1010.6